Preview of NWS' New Version of Forecast
This preview is not operational and should not be used for support decisions.

Regional Weather Roundup (RWR)

Issued by National Weather Service (NWS)

                            
000
ASUS45 KPSR 200710
RWRAZ 

ARIZONA HOURLY REGIONAL WEATHER ROUNDUP
NATIONAL WEATHER SERVICE PHOENIX AZ
1200 AM MST MON MAY 20 2019

NOTE: FAIR INDICATES FEW OR NO CLOUDS BELOW 12,000 FEET WITH NO
SIGNIFICANT WEATHER AND/OR OBSTRUCTIONS TO VISIBILITY.

AZZ001>003-036-200800-
NORTHWEST ARIZONA
  
CITY           SKY/WX    TMP DP  RH WIND       PRES   REMARKS
BULLHEAD CITY  PTCLDY    64  36  34 SW10G22   29.69R                  
KINGMAN        PTCLDY    51  35  54 SW14      29.72R                  
$$

AZZ004>008-015-016-018-200800-
NORTH CENTRAL ARIZONA
  
CITY           SKY/WX    TMP DP  RH WIND       PRES   REMARKS
GRAND CANYON   CLEAR     33  31  92 SE7       29.78F WCI  27          
WILLIAMS       CLEAR     39  34  81 S13G20    29.79  WCI  32          
PRESCOTT       PTCLDY    45  38  76 SW13      29.77F                  
FLAGSTAFF      PTCLDY    36  34  92 S6        29.81F WCI  31          
PAYSON         CLOUDY    50  39  66 SW5       29.84                   
PAGE           CLOUDY    51  32  48 W8G18     29.74S                  
$$

AZZ009>014-017-200800-
NORTHEAST ARIZONA
  
CITY           SKY/WX    TMP DP  RH WIND       PRES   REMARKS
WINSLOW        CLOUDY    47  33  58 NW7       29.82F                  
SAINT JOHNS    CLOUDY    51  27  39 NW8       29.82F                  
WINDOW ROCK    CLOUDY    46  32  58 NW3       29.87S                  
SHOW LOW       CLOUDY    48  30  49 SW17      29.87F                  
$$

AZZ540-542>544-546-548-200800-
GREATER PHOENIX AREA
  
CITY           SKY/WX    TMP DP  RH WIND       PRES   REMARKS
PHOENIX        CLOUDY    70  41  34 CALM      29.71F                  
BUCKEYE        CLOUDY    66  39  37 SW9       29.75R                  
LUKE AFB       CLOUDY    69  39  34 SW13      29.71S                  
DEER VALLEY    CLOUDY    68  38  33 SW12      29.73S                  
SCOTTSDALE     CLOUDY    69  38  32 SW8       29.74F                  
MESA-FALCON    CLOUDY    70  41  34 W6        29.73F                  
MESA-GATEWAY   MOCLDY    70  45  40 W7        29.75S                  
$$

AZZ539-553-200800-
SOUTHWEST MARICOPA COUNTY AND PINAL COUNTY
  
CITY           SKY/WX    TMP DP  RH WIND       PRES   REMARKS
CASA GRANDE    CLOUDY    67  41  38 W14       29.76S                  
GILA BEND      FAIR      67  35  30 SW9       29.74F                  
$$

AZZ503-504-507>509-200800-
SOUTHEAST ARIZONA
  
CITY           SKY/WX    TMP DP  RH WIND       PRES   REMARKS
TUCSON         CLOUDY    67  37  33 S8        29.83F                  
DAVIS-MONTHAN  CLOUDY    66  37  34 SW12      29.81F                  
NOGALES        CLOUDY    59  34  39 S10       29.87F                  
SIERRA VISTA   CLEAR     57  31  37 NW3       29.89F                  
DOUGLAS        CLOUDY    62  27  26 NW8       29.86F                  
SAFFORD        CLOUDY    68  31  25 NW12G18   29.76S                  
$$

AZZ532-200800-
SOUTHWEST ARIZONA
  
CITY           SKY/WX    TMP DP  RH WIND       PRES   REMARKS
YUMA           MOCLDY    62  39  42 W21G31    29.79F                  
$$

CAZ041-043-047-048-061-525>527-560>570-200800-
SOUTHERN CALIFORNIA
  
CITY           SKY/WX    TMP DP  RH WIND       PRES   REMARKS
DOWNTOWN L.A.  PTCLDY    57  50  77 CALM      29.87F                  
L.A. AIRPORT   PTCLDY    57  51  80 W21       29.87F                  
SAN DIEGO      MOCLDY    59  53  80 NW8       29.94F                  
BURBANK        CLEAR     54  48  80 W6        29.86F                  
ONTARIO        MOCLDY    57  54  89 SW13      29.86F                  
RIVERSIDE      CLOUDY    53  51  93 SE3       29.87F                  
PALM SPRINGS   CLEAR     62  40  44 E12       29.75F                  
EL CENTRO NAS  LGT RAIN  62  39  42 W22       29.83S                  
IMPERIAL       PTCLDY   N/A N/A N/A MISG      29.79F                  
BLYTHE         CLEAR     62  41  46 E8        29.74R                  
NEEDLES        PTCLDY    65  38  36 VRB3      29.71R                  
$$

NVZ020-UTZ003-200800-
SOUTHERN NEVADA-UTAH
  
CITY           SKY/WX    TMP DP  RH WIND       PRES   REMARKS
LAS VEGAS      CLOUDY    58  34  40 SW14G25   29.63F                  
SALT LAKE CITY CLOUDY    49  36  61 S10       29.66F                  
$$

NMZ009-TXZ055-200800-
NEW MEXICO-WEST TEXAS
  
CITY           SKY/WX    TMP DP  RH WIND       PRES   REMARKS
ALBUQUERQUE    CLOUDY    64  22  20 W8        29.82F                  
EL PASO        CLOUDY    78  25  14 SW10      29.78F                  
$$


........................KEY........................
SKY/WX - SKY CONDITION/WEATHER
TMP    - TEMPERATURE IN FAHRENHEIT
DP     - DEW POINT IN FAHRENHEIT
RH     - RELATIVE HUMIDITY IN PERCENT
WIND   - DIRECTION AND SPEED IN MILES PER HOUR (MPH)
VRB    - VARIABLE WIND DIRECTION
PRES   - MEAN SEA LEVEL PRESSURE IN INCHES OF MERCURY
         F - FALLING PRESSURE   R - RISING PRESSURE
         S - STEADY PRESSURE
VSB    - VISIBILITY IN MILES
HX     - HEAT INDEX IN FAHRENHEIT
WCI    - WIND CHILL INDEX IN FAHRENHEIT
TC     - TEMPERATURE IN CELSIUS WHICH IS ALSO KNOWN AS
         TEMPERATURE IN CENTIGRADE
AFB    - AIR FORCE BASE
         LUKE AFB IS LUKE AIR FORCE BASE
         DAVIS-MONTHAN IS DAVIS-MONTHAN AIR FORCE BASE
NAS    - NAVAL AIR STATION
         EL CENTRO NAS IS EL CENTRO NAVAL AIR STATION
N/A    - NOT AVAILABLE